Погода в Мампикони

Мадагаскар     16°07′49″S   47°38′12″E
темп.,
°C
ветер,
м/с
пор.,
м/с
влажн.,
%
обл.,
%
осадки,
мм/ч
давл.,
гПа
погр.,
м
1 марта, пн
пн100:00+23вюв129375 7.9 101034
03:00+23юв229152 8.3 100933
06:00+22вюв129233 1.3 101030
09:00+27вюв247652 1.3 1011602
12:00+31всв245921 0.0 10091402
15:00+30с336830 1.4 10081141
18:00+26св128675 6.1 100956
21:00+24всв129142 12.1 101250
2 марта, вт
вт200:00+23вюв12900 0.4 101232
03:00+21вюв22912 0.4 101141
06:00+21юв229154 0.0 101154
09:00+26в247275 0.0 1012569
12:00+31в246096 0.0 10101353
15:00+31с236098 0.0 10081105
18:00+26ссз268561 0.9 1009198
21:00+23св239268 4.4 101294
3 марта, ср
ср300:00+23всв139297 0.7 101281
03:00+22в129393 1.2 101031
06:00+21вюв119259 0.0 101132
09:00+27св137449 0.0 1012684
12:00+32ссв12571 0.0 10091380
15:00+31с32582 0.0 10071481
18:00+26с248452 1.1 1008119
21:00+24всв239344 2.4 101194
4 марта, чт
чт400:00+23всв269233 0.4 1010189
03:00+22всв249159 0.4 1009112
06:00+23всв2389100 0.1 100972
09:00+23ссв4788100 0.3 1011617
12:00+24ссз2588100 1.7 1009577
15:00+25с2584100 2.9 1007706
18:00+23св1495100 2.8 1009207
21:00+23всв2294100 3.8 101091
5 марта, пт
пт500:00+23св1295100 1.0 101054
03:00+22всв2394100 2.1 1008108
06:00+22св2597100 2.3 1010207
09:00+24св3691100 4.1 1010579
12:00+25ссз369291 3.9 1009521
15:00+24с259595 8.1 1007451
18:00+22зюз3898100 23.6 1008486
21:00+22юв1297100 28.2 100978